STARLINK-3147 (49410 NORAD) Tracking and Keplerian Element Data

This shows tracking and keplerian element data for the satellite.

Feedback or suggestion? Click here.




ElementValue
Catalog49410
NameSTARLINK-3147
Epoch Orbit366
Epoch Day15.91668981
Epoch Year2022
RAAN185.3623
Inclination53.2174
Eccentricity0.0001613
Argument of Perigee45.1643
Mean Anonmoly275.2629
Mean Motion15.2411354
Decay Rate-0.00654749
L11 49410U 21104C 22015.91668981 -.00654749 00000+0 -28650-1 0 9992
L22 49410 53.2174 185.3623 0001613 45.1643 275.2629 15.24113540 3668

Live tracking and technical data element details for STARLINK-3147 (NORAD 49410). STARLINK-3147 can be tracked NOW for your location showing map with azimuth and elevation plus other details from your city location.

Track the satellite on the map from your city or location and see movement details for azimuth, elevation, latitude, longitude, range, height, and movement on the map or in text.







IsCatalogInMostPopularTable: catalog: 49410, numindb: 9
Update: records affected: 1



GetName: 49410 STARLINK-3147

Hit Count: updated at: Thu, 20 Jan 2022 17:06:06 GMT